Time,TemperatureF,DewpointF,PressureIn,WindDirection,WindDirectionDegrees,WindSpeedMPH,WindSpeedGustMPH,Humidity,HourlyPrecipIn,Conditions,Clouds,dailyrainin,SoftwareType,DateUTC
2013-05-13 00:00:00,59.3,45.8,30.11,ESE,116,11.0,11.0,61,0.00,,,0.00,Wunderground v.1.15,2013-05-13 05:00:00,
2013-05-13 00:06:00,59.0,45.6,30.11,ESE,112,10.0,12.0,61,0.00,,,0.00,Wunderground v.1.15,2013-05-13 05:06:00,
2013-05-13 00:11:00,59.0,45.6,30.11,ESE,111,10.0,13.0,61,0.00,,,0.00,Wunderground v.1.15,2013-05-13 05:11:00,
2013-05-13 00:16:00,58.8,45.8,30.11,ESE,110,10.0,13.0,62,0.00,,,0.00,Wunderground v.1.15,2013-05-13 05:16:00,
2013-05-13 00:22:00,58.5,45.5,30.11,ESE,107,9.0,11.0,62,0.00,,,0.00,Wunderground v.1.15,2013-05-13 05:22:00,
2013-05-13 00:27:00,58.3,45.3,30.11,ESE,102,9.0,11.0,62,0.00,,,0.00,Wunderground v.1.15,2013-05-13 05:27:00,
2013-05-13 00:33:00,58.1,45.6,30.11,ESE,104,9.0,11.0,63,0.00,,,0.00,Wunderground v.1.15,2013-05-13 05:33:00,
2013-05-13 00:38:00,57.9,45.4,30.11,East,96,9.0,14.0,63,0.00,,,0.00,Wunderground v.1.15,2013-05-13 05:38:00,
2013-05-13 00:44:00,57.7,45.6,30.11,East,95,10.0,11.0,64,0.00,,,0.00,Wunderground v.1.15,2013-05-13 05:44:00,
2013-05-13 00:50:00,57.5,45.4,30.11,East,99,9.0,11.0,64,0.00,,,0.00,Wunderground v.1.15,2013-05-13 05:50:00,
2013-05-13 00:55:00,57.3,45.6,30.11,East,101,9.0,11.0,65,0.00,,,0.00,Wunderground v.1.15,2013-05-13 05:55:00,
2013-05-13 01:00:00,57.1,45.4,30.11,ESE,107,8.0,11.0,65,0.00,,,0.00,Wunderground v.1.15,2013-05-13 06:00:00,
2013-05-13 01:06:00,56.9,45.3,30.11,ESE,107,7.0,11.0,65,0.00,,,0.00,Wunderground v.1.15,2013-05-13 06:06:00,
2013-05-13 01:11:00,56.7,45.5,30.11,ESE,107,7.0,11.0,66,0.00,,,0.00,Wunderground v.1.15,2013-05-13 06:11:00,
2013-05-13 01:17:00,56.6,45.4,30.11,ESE,108,8.0,11.0,66,0.00,,,0.00,Wunderground v.1.15,2013-05-13 06:17:00,
2013-05-13 01:22:00,56.6,45.4,30.11,ESE,106,8.0,11.0,66,0.00,,,0.00,Wunderground v.1.15,2013-05-13 06:22:00,
2013-05-13 01:28:00,56.5,45.3,30.11,ESE,108,8.0,14.0,66,0.00,,,0.00,Wunderground v.1.15,2013-05-13 06:28:00,
2013-05-13 01:33:00,56.5,45.3,30.11,ESE,106,9.0,11.0,66,0.00,,,0.00,Wunderground v.1.15,2013-05-13 06:33:00,
2013-05-13 01:39:00,56.4,45.6,30.11,ESE,110,9.0,11.0,67,0.00,,,0.00,Wunderground v.1.15,2013-05-13 06:39:00,
2013-05-13 01:44:00,56.4,45.6,30.11,ESE,123,9.0,11.0,67,0.00,,,0.00,Wunderground v.1.15,2013-05-13 06:44:00,
2013-05-13 01:49:00,56.4,45.6,30.10,ESE,123,9.0,11.0,67,0.00,,,0.00,Wunderground v.1.15,2013-05-13 06:49:00,
2013-05-13 01:55:00,56.3,45.5,30.10,SE,126,8.0,11.0,67,0.00,,,0.00,Wunderground v.1.15,2013-05-13 06:55:00,
2013-05-13 02:01:00,56.2,45.8,30.10,SE,132,8.0,11.0,68,0.00,,,0.00,Wunderground v.1.15,2013-05-13 07:01:00,
2013-05-13 02:06:00,56.1,45.7,30.10,SE,132,7.0,11.0,68,0.00,,,0.00,Wunderground v.1.15,2013-05-13 07:06:00,
2013-05-13 02:12:00,56.2,45.8,30.10,SE,132,6.0,11.0,68,0.00,,,0.00,Wunderground v.1.15,2013-05-13 07:12:00,
2013-05-13 02:18:00,56.3,45.9,30.10,SE,132,4.0,11.0,68,0.00,,,0.00,Wunderground v.1.15,2013-05-13 07:18:00,
2013-05-13 02:24:00,56.3,45.9,30.10,SE,130,3.0,11.0,68,0.00,,,0.00,Wunderground v.1.15,2013-05-13 07:24:00,
2013-05-13 02:29:00,56.3,45.9,30.10,SE,130,2.0,11.0,68,0.00,,,0.00,Wunderground v.1.15,2013-05-13 07:29:00,
2013-05-13 02:35:00,56.2,45.8,30.10,SE,130,1.0,11.0,68,0.00,,,0.00,Wunderground v.1.15,2013-05-13 07:35:00,
2013-05-13 02:40:00,56.4,46.0,30.09,SE,130,2.0,11.0,68,0.00,,,0.00,Wunderground v.1.15,2013-05-13 07:40:00,
2013-05-13 02:45:00,56.5,46.1,30.09,SE,130,3.0,11.0,68,0.00,,,0.00,Wunderground v.1.15,2013-05-13 07:45:00,
2013-05-13 02:51:00,56.8,46.3,30.09,SE,130,2.0,11.0,68,0.00,,,0.00,Wunderground v.1.15,2013-05-13 07:51:00,
2013-05-13 02:56:00,57.0,46.5,30.09,SE,130,2.0,11.0,68,0.00,,,0.00,Wunderground v.1.15,2013-05-13 07:56:00,
2013-05-13 03:02:00,57.2,46.3,30.09,SE,130,4.0,6.0,67,0.00,,,0.00,Wunderground v.1.15,2013-05-13 08:02:00,
2013-05-13 03:07:00,57.2,46.3,30.09,SSE,151,4.0,13.0,67,0.00,,,0.00,Wunderground v.1.15,2013-05-13 08:07:00,
2013-05-13 03:13:00,57.3,46.4,30.09,SSE,149,7.0,13.0,67,0.00,,,0.00,Wunderground v.1.15,2013-05-13 08:13:00,
2013-05-13 03:18:00,57.3,46.4,30.09,SSE,147,8.0,13.0,67,0.00,,,0.00,Wunderground v.1.15,2013-05-13 08:18:00,
2013-05-13 03:24:00,57.2,46.7,30.09,SSE,150,8.0,11.0,68,0.00,,,0.00,Wunderground v.1.15,2013-05-13 08:24:00,
2013-05-13 03:29:00,57.2,46.7,30.08,SSE,147,9.0,11.0,68,0.00,,,0.00,Wunderground v.1.15,2013-05-13 08:29:00,
2013-05-13 03:35:00,57.3,46.8,30.08,SSE,150,9.0,11.0,68,0.00,,,0.00,Wunderground v.1.15,2013-05-13 08:35:00,
2013-05-13 03:40:00,57.6,46.7,30.08,SSE,150,9.0,9.0,67,0.00,,,0.00,Wunderground v.1.15,2013-05-13 08:40:00,
2013-05-13 03:45:00,57.8,46.9,30.08,SSE,150,7.0,11.0,67,0.00,,,0.00,Wunderground v.1.15,2013-05-13 08:45:00,
2013-05-13 03:51:00,58.1,47.2,30.08,SSE,150,5.0,11.0,67,0.00,,,0.00,Wunderground v.1.15,2013-05-13 08:51:00,
2013-05-13 03:57:00,58.0,47.1,30.08,SSE,150,6.0,11.0,67,0.00,,,0.00,Wunderground v.1.15,2013-05-13 08:57:00,
2013-05-13 04:02:00,57.9,47.0,30.08,SSE,150,6.0,11.0,67,0.00,,,0.00,Wunderground v.1.15,2013-05-13 09:02:00,
2013-05-13 04:08:00,57.8,46.9,30.07,SSE,153,5.0,11.0,67,0.00,,,0.00,Wunderground v.1.15,2013-05-13 09:08:00,
2013-05-13 04:14:00,57.2,46.7,30.07,SSE,153,4.0,11.0,68,0.00,,,0.00,Wunderground v.1.15,2013-05-13 09:14:00,
2013-05-13 04:20:00,56.7,46.6,30.07,SSE,153,4.0,4.0,69,0.00,,,0.00,Wunderground v.1.15,2013-05-13 09:20:00,
2013-05-13 04:25:00,56.6,46.5,30.07,SSE,153,3.0,11.0,69,0.00,,,0.00,Wunderground v.1.15,2013-05-13 09:25:00,
2013-05-13 04:31:00,56.4,46.4,30.07,SSE,153,3.0,11.0,69,0.00,,,0.00,Wunderground v.1.15,2013-05-13 09:31:00,
2013-05-13 04:36:00,56.3,46.6,30.07,SSE,153,3.0,11.0,70,0.00,,,0.00,Wunderground v.1.15,2013-05-13 09:36:00,
2013-05-13 04:42:00,56.2,46.5,30.06,SSE,153,4.0,11.0,70,0.00,,,0.00,Wunderground v.1.15,2013-05-13 09:42:00,
2013-05-13 04:47:00,56.2,46.5,30.06,SSE,153,5.0,11.0,70,0.00,,,0.00,Wunderground v.1.15,2013-05-13 09:47:00,
2013-05-13 04:52:00,56.2,46.5,30.06,SSE,153,7.0,11.0,70,0.00,,,0.00,Wunderground v.1.15,2013-05-13 09:52:00,
2013-05-13 04:58:00,56.1,46.4,30.06,SSE,153,6.0,11.0,70,0.00,,,0.00,Wunderground v.1.15,2013-05-13 09:58:00,
2013-05-13 05:03:00,55.9,46.6,30.06,SSE,153,5.0,11.0,71,0.00,,,0.00,Wunderground v.1.15,2013-05-13 10:03:00,
2013-05-13 05:09:00,55.8,46.5,30.06,SSE,153,5.0,11.0,71,0.00,,,0.00,Wunderground v.1.15,2013-05-13 10:09:00,
2013-05-13 05:14:00,55.6,46.3,30.06,SSE,153,5.0,11.0,71,0.00,,,0.00,Wunderground v.1.15,2013-05-13 10:14:00,
2013-05-13 05:20:00,55.5,46.6,30.06,SSE,153,6.0,11.0,72,0.00,,,0.00,Wunderground v.1.15,2013-05-13 10:20:00,
2013-05-13 05:25:00,55.3,46.4,30.05,SSE,153,6.0,11.0,72,0.00,,,0.00,Wunderground v.1.15,2013-05-13 10:25:00,
2013-05-13 05:31:00,56.0,46.7,30.05,SSE,153,6.0,11.0,71,0.00,,,0.00,Wunderground v.1.15,2013-05-13 10:31:00,
2013-05-13 05:36:00,56.3,46.6,30.05,SSE,153,5.0,11.0,70,0.00,,,0.00,Wunderground v.1.15,2013-05-13 10:36:00,
2013-05-13 05:42:00,56.5,46.8,30.05,SSE,153,4.0,11.0,70,0.00,,,0.00,Wunderground v.1.15,2013-05-13 10:42:00,
2013-05-13 05:47:00,56.5,46.8,30.05,SSE,155,5.0,11.0,70,0.00,,,0.00,Wunderground v.1.15,2013-05-13 10:47:00,
2013-05-13 05:53:00,56.4,46.7,30.05,SSE,155,5.0,11.0,70,0.00,,,0.00,Wunderground v.1.15,2013-05-13 10:53:00,
2013-05-13 05:58:00,56.2,46.5,30.05,SSE,157,5.0,11.0,70,0.00,,,0.00,Wunderground v.1.15,2013-05-13 10:58:00,
2013-05-13 06:04:00,56.3,46.6,30.05,SSE,157,4.0,11.0,70,0.00,,,0.00,Wunderground v.1.15,2013-05-13 11:04:00,
2013-05-13 06:09:00,56.4,46.7,30.05,SSE,157,2.0,11.0,70,0.00,,,0.00,Wunderground v.1.15,2013-05-13 11:09:00,
2013-05-13 06:15:00,57.1,47.0,30.05,SSE,159,4.0,11.0,69,0.00,,,0.00,Wunderground v.1.15,2013-05-13 11:15:00,
2013-05-13 06:20:00,57.2,46.7,30.05,SSE,162,4.0,11.0,68,0.00,,,0.00,Wunderground v.1.15,2013-05-13 11:20:00,
2013-05-13 06:26:00,57.1,46.6,30.05,SSE,167,4.0,11.0,68,0.00,,,0.00,Wunderground v.1.15,2013-05-13 11:26:00,
2013-05-13 06:31:00,56.8,46.7,30.04,SSE,167,3.0,11.0,69,0.00,,,0.00,Wunderground v.1.15,2013-05-13 11:31:00,
2013-05-13 06:36:00,56.8,46.7,30.04,South,174,4.0,11.0,69,0.00,,,0.00,Wunderground v.1.15,2013-05-13 11:36:00,
2013-05-13 06:42:00,56.9,46.4,30.04,South,175,5.0,11.0,68,0.00,,,0.00,Wunderground v.1.15,2013-05-13 11:42:00,
2013-05-13 06:48:00,57.0,46.5,30.04,South,175,4.0,11.0,68,0.00,,,0.00,Wunderground v.1.15,2013-05-13 11:48:00,
2013-05-13 06:54:00,57.1,46.6,30.04,South,175,4.0,11.0,68,0.00,,,0.00,Wunderground v.1.15,2013-05-13 11:54:00,
2013-05-13 07:00:00,57.1,46.6,30.04,South,175,3.0,3.0,68,0.00,,,0.00,Wunderground v.1.15,2013-05-13 12:00:00,
2013-05-13 07:05:00,56.9,46.4,30.04,South,175,1.0,11.0,68,0.00,,,0.00,Wunderground v.1.15,2013-05-13 12:05:00,
2013-05-13 07:11:00,56.7,46.3,30.04,South,175,0.0,11.0,68,0.00,,,0.00,Wunderground v.1.15,2013-05-13 12:11:00,
2013-05-13 07:16:00,56.5,46.1,30.04,South,173,2.0,11.0,68,0.00,,,0.00,Wunderground v.1.15,2013-05-13 12:16:00,
2013-05-13 07:21:00,56.3,46.3,30.04,South,169,5.0,11.0,69,0.00,,,0.00,Wunderground v.1.15,2013-05-13 12:21:00,
2013-05-13 07:27:00,56.4,46.4,30.03,SSE,168,5.0,11.0,69,0.00,,,0.00,Wunderground v.1.15,2013-05-13 12:27:00,
2013-05-13 07:32:00,56.8,46.3,30.03,SSE,162,5.0,11.0,68,0.00,,,0.00,Wunderground v.1.15,2013-05-13 12:32:00,
2013-05-13 07:38:00,57.5,46.2,30.02,SSE,157,6.0,11.0,66,0.00,,,0.00,Wunderground v.1.15,2013-05-13 12:38:00,
2013-05-13 07:43:00,57.9,46.2,30.03,SSE,157,6.0,11.0,65,0.00,,,0.00,Wunderground v.1.15,2013-05-13 12:43:00,
2013-05-13 07:49:00,58.4,46.7,30.02,SSE,157,5.0,11.0,65,0.00,,,0.00,Wunderground v.1.15,2013-05-13 12:49:00,
2013-05-13 07:54:00,58.6,46.5,30.02,SSE,157,3.0,11.0,64,0.00,,,0.00,Wunderground v.1.15,2013-05-13 12:54:00,
2013-05-13 08:00:00,59.3,45.8,30.02,SSE,157,2.0,2.0,61,0.00,,,0.00,Wunderground v.1.15,2013-05-13 13:00:00,
2013-05-13 08:05:00,60.3,46.8,30.03,SSE,157,2.0,11.0,61,0.00,,,0.00,Wunderground v.1.15,2013-05-13 13:05:00,
2013-05-13 08:11:00,61.1,47.1,30.02,SSE,157,1.0,11.0,60,0.00,,,0.00,Wunderground v.1.15,2013-05-13 13:11:00,
2013-05-13 08:16:00,61.8,46.9,30.02,SSE,157,1.0,11.0,58,0.00,,,0.00,Wunderground v.1.15,2013-05-13 13:16:00,
2013-05-13 08:22:00,63.1,46.2,30.03,South,172,2.0,11.0,54,0.00,,,0.00,Wunderground v.1.15,2013-05-13 13:22:00,
2013-05-13 08:28:00,65.1,45.5,30.02,SSW,200,4.0,13.0,49,0.00,,,0.00,Wunderground v.1.15,2013-05-13 13:28:00,
2013-05-13 08:34:00,67.3,46.4,30.02,South,178,7.0,11.0,47,0.00,,,0.00,Wunderground v.1.15,2013-05-13 13:34:00,
2013-05-13 08:39:00,68.1,46.5,30.02,SSE,168,8.0,18.0,46,0.00,,,0.00,Wunderground v.1.15,2013-05-13 13:39:00,
2013-05-13 08:44:00,68.3,46.7,30.02,SSE,156,7.0,11.0,46,0.00,,,0.00,Wunderground v.1.15,2013-05-13 13:44:00,
2013-05-13 08:50:00,68.3,47.3,30.02,SSE,156,5.0,11.0,47,0.00,,,0.00,Wunderground v.1.15,2013-05-13 13:50:00,
2013-05-13 08:55:00,68.9,47.3,30.02,SSE,168,4.0,11.0,46,0.00,,,0.00,Wunderground v.1.15,2013-05-13 13:55:00,
2013-05-13 09:01:00,69.0,46.2,30.02,SSW,207,8.0,16.0,44,0.00,,,0.00,Wunderground v.1.15,2013-05-13 14:01:00,
2013-05-13 09:06:00,68.1,45.9,30.02,SSW,198,12.0,17.0,45,0.00,,,0.00,Wunderground v.1.15,2013-05-13 14:06:00,
2013-05-13 09:11:00,67.4,46.5,30.02,SW,223,14.0,14.0,47,0.00,,,0.00,Wunderground v.1.15,2013-05-13 14:11:00,
2013-05-13 09:17:00,67.4,47.0,30.02,SSW,206,12.0,14.0,48,0.00,,,0.00,Wunderground v.1.15,2013-05-13 14:17:00,
2013-05-13 09:22:00,67.3,46.9,30.02,SSW,200,11.0,11.0,48,0.00,,,0.00,Wunderground v.1.15,2013-05-13 14:22:00,
2013-05-13 09:28:00,67.4,47.6,30.02,SSW,205,11.0,11.0,49,0.00,,,0.00,Wunderground v.1.15,2013-05-13 14:28:00,
2013-05-13 09:33:00,67.8,46.8,30.02,SSW,200,9.0,11.0,47,0.00,,,0.00,Wunderground v.1.15,2013-05-13 14:33:00,
2013-05-13 09:39:00,67.9,46.9,30.02,SSW,201,10.0,12.0,47,0.00,,,0.00,Wunderground v.1.15,2013-05-13 14:39:00,
2013-05-13 09:44:00,68.2,47.8,30.02,SSW,207,10.0,12.0,48,0.00,,,0.00,Wunderground v.1.15,2013-05-13 14:44:00,
2013-05-13 09:50:00,68.8,47.2,30.02,SSW,208,8.0,11.0,46,0.00,,,0.00,Wunderground v.1.15,2013-05-13 14:50:00,
2013-05-13 09:55:00,69.0,47.4,30.02,SW,217,8.0,12.0,46,0.00,,,0.00,Wunderground v.1.15,2013-05-13 14:55:00,
2013-05-13 10:01:00,69.0,47.4,30.02,SSW,208,9.0,11.0,46,0.00,,,0.00,Wunderground v.1.15,2013-05-13 15:01:00,
2013-05-13 10:06:00,69.2,47.5,30.02,SSW,207,10.0,11.0,46,0.00,,,0.00,Wunderground v.1.15,2013-05-13 15:06:00,
2013-05-13 10:12:00,69.7,48.0,30.02,SSW,205,9.0,11.0,46,0.00,,,0.00,Wunderground v.1.15,2013-05-13 15:12:00,
2013-05-13 10:17:00,70.3,48.5,30.02,SW,215,8.0,11.0,46,0.00,,,0.00,Wunderground v.1.15,2013-05-13 15:17:00,
2013-05-13 10:22:00,70.6,47.6,30.01,SSW,209,8.0,11.0,44,0.00,,,0.00,Wunderground v.1.15,2013-05-13 15:22:00,
2013-05-13 10:28:00,71.0,48.0,30.01,SSW,212,8.0,11.0,44,0.00,,,0.00,Wunderground v.1.15,2013-05-13 15:28:00,
2013-05-13 10:33:00,71.2,48.2,30.01,SW,223,7.0,11.0,44,0.00,,,0.00,Wunderground v.1.15,2013-05-13 15:33:00,
2013-05-13 10:39:00,71.5,47.8,30.01,SW,222,8.0,11.0,43,0.00,,,0.00,Wunderground v.1.15,2013-05-13 15:39:00,
2013-05-13 10:45:00,71.9,47.6,30.01,SW,225,8.0,11.0,42,0.00,,,0.00,Wunderground v.1.15,2013-05-13 15:45:00,
2013-05-13 10:50:00,72.2,47.8,30.01,SW,228,7.0,11.0,42,0.00,,,0.00,Wunderground v.1.15,2013-05-13 15:50:00,
2013-05-13 10:56:00,72.2,47.8,30.01,SW,231,7.0,11.0,42,0.00,,,0.00,Wunderground v.1.15,2013-05-13 15:56:00,
2013-05-13 11:01:00,72.6,48.8,30.01,SW,231,6.0,11.0,43,0.00,,,0.00,Wunderground v.1.15,2013-05-13 16:01:00,
2013-05-13 11:07:00,73.1,48.0,30.01,SW,231,5.0,11.0,41,0.00,,,0.00,Wunderground v.1.15,2013-05-13 16:07:00,
2013-05-13 11:12:00,73.4,48.9,30.00,SW,221,5.0,11.0,42,0.00,,,0.00,Wunderground v.1.15,2013-05-13 16:12:00,
2013-05-13 11:18:00,73.8,49.3,30.00,SW,221,5.0,11.0,42,0.00,,,0.00,Wunderground v.1.15,2013-05-13 16:18:00,
2013-05-13 11:23:00,74.0,48.8,30.01,SW,221,6.0,11.0,41,0.00,,,0.00,Wunderground v.1.15,2013-05-13 16:23:00,
2013-05-13 11:29:00,74.8,50.2,30.00,SW,221,6.0,11.0,42,0.00,,,0.00,Wunderground v.1.15,2013-05-13 16:29:00,
2013-05-13 11:34:00,75.3,50.0,30.00,SW,221,4.0,11.0,41,0.00,,,0.00,Wunderground v.1.15,2013-05-13 16:34:00,
2013-05-13 11:40:00,76.2,50.1,30.00,SW,221,4.0,11.0,40,0.00,,,0.00,Wunderground v.1.15,2013-05-13 16:40:00,
2013-05-13 11:45:00,76.6,49.8,30.00,SW,221,5.0,11.0,39,0.00,,,0.00,Wunderground v.1.15,2013-05-13 16:45:00,
2013-05-13 11:51:00,77.3,49.0,30.00,SW,221,4.0,11.0,37,0.00,,,0.00,Wunderground v.1.15,2013-05-13 16:51:00,
2013-05-13 11:56:00,77.7,49.3,30.00,SW,221,4.0,11.0,37,0.00,,,0.00,Wunderground v.1.15,2013-05-13 16:56:00,
2013-05-13 12:01:00,78.2,49.1,30.00,SW,221,4.0,11.0,36,0.00,,,0.00,Wunderground v.1.15,2013-05-13 17:01:00,
2013-05-13 12:07:00,78.4,49.2,29.99,SW,225,5.0,11.0,36,0.00,,,0.00,Wunderground v.1.15,2013-05-13 17:07:00,
2013-05-13 12:13:00,79.0,50.5,29.99,SW,221,5.0,11.0,37,0.00,,,0.00,Wunderground v.1.15,2013-05-13 17:13:00,
2013-05-13 12:18:00,79.3,50.0,29.99,SW,219,5.0,11.0,36,0.00,,,0.00,Wunderground v.1.15,2013-05-13 17:18:00,
2013-05-13 12:23:00,79.6,50.3,29.99,SSW,207,5.0,11.0,36,0.00,,,0.00,Wunderground v.1.15,2013-05-13 17:23:00,
2013-05-13 12:29:00,80.2,50.8,29.98,SSW,207,3.0,11.0,36,0.00,,,0.00,Wunderground v.1.15,2013-05-13 17:29:00,
2013-05-13 12:35:00,81.2,50.2,29.98,SSW,203,3.0,11.0,34,0.00,,,0.00,Wunderground v.1.15,2013-05-13 17:35:00,
2013-05-13 12:40:00,81.7,50.6,29.98,South,188,4.0,11.0,34,0.00,,,0.00,Wunderground v.1.15,2013-05-13 17:40:00,
2013-05-13 12:45:00,82.3,50.3,29.98,South,188,4.0,11.0,33,0.00,,,0.00,Wunderground v.1.15,2013-05-13 17:45:00,
2013-05-13 12:51:00,82.8,49.9,29.98,SSW,192,4.0,11.0,32,0.00,,,0.00,Wunderground v.1.15,2013-05-13 17:51:00,
2013-05-13 12:56:00,83.0,50.9,29.98,SSW,194,4.0,11.0,33,0.00,,,0.00,Wunderground v.1.15,2013-05-13 17:56:00,
2013-05-13 13:01:00,83.7,51.5,29.97,SSW,194,4.0,11.0,33,0.00,,,0.00,Wunderground v.1.15,2013-05-13 18:01:00,
2013-05-13 13:07:00,84.4,50.5,29.97,WSW,247,4.0,11.0,31,0.00,,,0.00,Wunderground v.1.15,2013-05-13 18:07:00,
2013-05-13 13:12:00,84.9,50.0,29.97,SSW,198,5.0,11.0,30,0.00,,,0.00,Wunderground v.1.15,2013-05-13 18:12:00,
2013-05-13 13:18:00,85.1,51.1,29.96,SSW,198,6.0,11.0,31,0.00,,,0.00,Wunderground v.1.15,2013-05-13 18:18:00,
2013-05-13 13:23:00,85.9,50.9,29.96,SW,222,5.0,11.0,30,0.00,,,0.00,Wunderground v.1.15,2013-05-13 18:23:00,
2013-05-13 13:29:00,86.3,50.3,29.96,SW,232,6.0,11.0,29,0.00,,,0.00,Wunderground v.1.15,2013-05-13 18:29:00,
2013-05-13 13:34:00,86.4,50.4,29.96,WSW,248,6.0,11.0,29,0.00,,,0.00,Wunderground v.1.15,2013-05-13 18:34:00,
2013-05-13 13:40:00,86.9,50.8,29.96,WSW,252,4.0,11.0,29,0.00,,,0.00,Wunderground v.1.15,2013-05-13 18:40:00,
2013-05-13 13:45:00,87.1,50.0,29.95,WSW,237,6.0,11.0,28,0.00,,,0.00,Wunderground v.1.15,2013-05-13 18:45:00,
2013-05-13 13:51:00,87.2,48.1,29.95,WSW,239,8.0,11.0,26,0.00,,,0.00,Wunderground v.1.15,2013-05-13 18:51:00,
2013-05-13 13:56:00,87.7,49.6,29.95,West,264,8.0,11.0,27,0.00,,,0.00,Wunderground v.1.15,2013-05-13 18:56:00,
2013-05-13 14:01:00,87.6,47.4,29.95,West,278,9.0,11.0,25,0.00,,,0.00,Wunderground v.1.15,2013-05-13 19:01:00,
2013-05-13 14:07:00,87.9,46.6,29.95,West,271,10.0,11.0,24,0.00,,,0.00,Wunderground v.1.15,2013-05-13 19:07:00,
2013-05-13 14:13:00,88.4,45.9,29.95,SW,231,9.0,11.0,23,0.00,,,0.00,Wunderground v.1.15,2013-05-13 19:13:00,
2013-05-13 14:18:00,88.5,47.1,29.95,WSW,247,9.0,11.0,24,0.00,,,0.00,Wunderground v.1.15,2013-05-13 19:18:00,
2013-05-13 14:23:00,88.5,47.1,29.94,WSW,245,8.0,11.0,24,0.00,,,0.00,Wunderground v.1.15,2013-05-13 19:23:00,
2013-05-13 14:29:00,89.0,47.5,29.94,SW,233,7.0,13.0,24,0.00,,,0.00,Wunderground v.1.15,2013-05-13 19:29:00,
2013-05-13 14:34:00,89.0,47.5,29.94,West,271,9.0,13.0,24,0.00,,,0.00,Wunderground v.1.15,2013-05-13 19:34:00,
2013-05-13 14:40:00,88.9,46.3,29.94,WNW,286,10.0,12.0,23,0.00,,,0.00,Wunderground v.1.15,2013-05-13 19:40:00,
2013-05-13 14:45:00,88.8,45.0,29.94,West,277,11.0,12.0,22,0.00,,,0.00,Wunderground v.1.15,2013-05-13 19:45:00,
2013-05-13 14:51:00,89.0,45.2,29.94,West,271,11.0,11.0,22,0.00,,,0.00,Wunderground v.1.15,2013-05-13 19:51:00,
2013-05-13 14:56:00,89.4,44.3,29.94,WSW,252,9.0,12.0,21,0.00,,,0.00,Wunderground v.1.15,2013-05-13 19:56:00,
2013-05-13 15:02:00,89.6,44.5,29.93,WSW,238,8.0,11.0,21,0.00,,,0.00,Wunderground v.1.15,2013-05-13 20:02:00,
2013-05-13 15:07:00,89.7,45.8,29.93,SW,224,6.0,11.0,22,0.00,,,0.00,Wunderground v.1.15,2013-05-13 20:07:00,
2013-05-13 15:13:00,89.9,44.7,29.93,West,276,5.0,11.0,21,0.00,,,0.00,Wunderground v.1.15,2013-05-13 20:13:00,
2013-05-13 15:18:00,90.0,46.0,29.92,West,276,6.0,11.0,22,0.00,,,0.00,Wunderground v.1.15,2013-05-13 20:18:00,
2013-05-13 15:24:00,90.2,46.2,29.92,West,271,5.0,11.0,22,0.00,,,0.00,Wunderground v.1.15,2013-05-13 20:24:00,
2013-05-13 15:29:00,90.5,47.6,29.92,WSW,241,6.0,11.0,23,0.00,,,0.00,Wunderground v.1.15,2013-05-13 20:29:00,
2013-05-13 15:34:00,90.6,46.5,29.92,West,270,6.0,11.0,22,0.00,,,0.00,Wunderground v.1.15,2013-05-13 20:34:00,
2013-05-13 15:39:00,90.6,46.5,29.92,WSW,248,4.0,11.0,22,0.00,,,0.00,Wunderground v.1.15,2013-05-13 20:39:00,
2013-05-13 15:45:00,90.9,46.8,29.91,SSW,209,4.0,11.0,22,0.00,,,0.00,Wunderground v.1.15,2013-05-13 20:45:00,
2013-05-13 15:50:00,90.9,46.8,29.91,SW,215,5.0,5.0,22,0.00,,,0.00,Wunderground v.1.15,2013-05-13 20:50:00,
2013-05-13 15:56:00,90.8,46.7,29.91,WSW,258,8.0,15.0,22,0.00,,,0.00,Wunderground v.1.15,2013-05-13 20:56:00,
2013-05-13 16:01:00,90.8,47.9,29.91,WSW,257,9.0,12.0,23,0.00,,,0.00,Wunderground v.1.15,2013-05-13 21:01:00,
2013-05-13 16:07:00,90.7,46.6,29.91,West,274,10.0,14.0,22,0.00,,,0.00,Wunderground v.1.15,2013-05-13 21:07:00,
2013-05-13 16:12:00,90.7,46.6,29.91,WNW,298,10.0,11.0,22,0.00,,,0.00,Wunderground v.1.15,2013-05-13 21:12:00,
2013-05-13 16:18:00,90.9,46.8,29.90,WNW,298,6.0,11.0,22,0.00,,,0.00,Wunderground v.1.15,2013-05-13 21:18:00,
2013-05-13 16:23:00,91.2,48.2,29.90,WSW,257,8.0,14.0,23,0.00,,,0.00,Wunderground v.1.15,2013-05-13 21:23:00,
2013-05-13 16:29:00,91.4,47.2,29.90,WSW,245,10.0,14.0,22,0.00,,,0.00,Wunderground v.1.15,2013-05-13 21:29:00,
2013-05-13 16:34:00,91.3,47.1,29.90,SW,221,8.0,11.0,22,0.00,,,0.00,Wunderground v.1.15,2013-05-13 21:34:00,
2013-05-13 16:40:00,91.3,48.3,29.90,WSW,256,7.0,11.0,23,0.00,,,0.00,Wunderground v.1.15,2013-05-13 21:40:00,
2013-05-13 16:45:00,91.2,47.0,29.90,NW,313,8.0,13.0,22,0.00,,,0.00,Wunderground v.1.15,2013-05-13 21:45:00,
2013-05-13 16:50:00,91.2,45.8,29.89,NW,309,7.0,7.0,21,0.00,,,0.00,Wunderground v.1.15,2013-05-13 21:50:00,
2013-05-13 16:56:00,91.5,46.1,29.89,WNW,296,6.0,11.0,21,0.00,,,0.00,Wunderground v.1.15,2013-05-13 21:56:00,
2013-05-13 17:01:00,91.6,46.1,29.89,NW,326,6.0,11.0,21,0.00,,,0.00,Wunderground v.1.15,2013-05-13 22:01:00,
2013-05-13 17:06:00,91.7,46.2,29.89,NW,326,6.0,11.0,21,0.00,,,0.00,Wunderground v.1.15,2013-05-13 22:06:00,
2013-05-13 17:11:00,91.9,46.4,29.89,NW,325,5.0,11.0,21,0.00,,,0.00,Wunderground v.1.15,2013-05-13 22:11:00,
2013-05-13 17:17:00,91.8,46.3,29.89,WNW,303,5.0,11.0,21,0.00,,,0.00,Wunderground v.1.15,2013-05-13 22:17:00,
2013-05-13 17:22:00,91.7,46.2,29.89,WNW,303,6.0,11.0,21,0.00,,,0.00,Wunderground v.1.15,2013-05-13 22:22:00,
2013-05-13 17:28:00,91.6,46.1,29.89,WNW,303,4.0,11.0,21,0.00,,,0.00,Wunderground v.1.15,2013-05-13 22:28:00,
2013-05-13 17:33:00,91.8,47.5,29.89,West,267,4.0,11.0,22,0.00,,,0.00,Wunderground v.1.15,2013-05-13 22:33:00,
2013-05-13 17:39:00,91.8,46.3,29.89,WNW,295,6.0,13.0,21,0.00,,,0.00,Wunderground v.1.15,2013-05-13 22:39:00,
2013-05-13 17:45:00,91.9,47.6,29.89,West,263,8.0,11.0,22,0.00,,,0.00,Wunderground v.1.15,2013-05-13 22:45:00,
2013-05-13 17:50:00,92.1,46.6,29.89,WSW,245,7.0,7.0,21,0.00,,,0.00,Wunderground v.1.15,2013-05-13 22:50:00,
2013-05-13 17:56:00,91.7,46.2,29.89,WSW,240,8.0,11.0,21,0.00,,,0.00,Wunderground v.1.15,2013-05-13 22:56:00,
2013-05-13 18:01:00,91.4,47.2,29.89,WSW,240,7.0,11.0,22,0.00,,,0.00,Wunderground v.1.15,2013-05-13 23:01:00,
2013-05-13 18:07:00,91.2,48.2,29.89,WSW,240,4.0,11.0,23,0.00,,,0.00,Wunderground v.1.15,2013-05-13 23:07:00,
2013-05-13 18:12:00,91.0,48.1,29.88,WSW,240,3.0,11.0,23,0.00,,,0.00,Wunderground v.1.15,2013-05-13 23:12:00,
2013-05-13 18:18:00,90.9,46.8,29.88,WSW,240,3.0,11.0,22,0.00,,,0.00,Wunderground v.1.15,2013-05-13 23:18:00,
2013-05-13 18:23:00,91.0,46.9,29.88,WSW,240,2.0,11.0,22,0.00,,,0.00,Wunderground v.1.15,2013-05-13 23:23:00,
2013-05-13 18:29:00,91.0,46.9,29.88,West,273,4.0,12.0,22,0.00,,,0.00,Wunderground v.1.15,2013-05-13 23:29:00,
2013-05-13 18:34:00,90.0,46.0,29.88,SW,225,10.0,21.0,22,0.00,,,0.00,Wunderground v.1.15,2013-05-13 23:34:00,
2013-05-13 18:39:00,90.1,46.1,29.88,SW,221,12.0,21.0,22,0.00,,,0.00,Wunderground v.1.15,2013-05-13 23:39:00,
2013-05-13 18:45:00,90.4,45.1,29.88,SW,221,5.0,11.0,21,0.00,,,0.00,Wunderground v.1.15,2013-05-13 23:45:00,
2013-05-13 18:50:00,90.8,45.5,29.87,SW,221,1.0,1.0,21,0.00,,,0.00,Wunderground v.1.15,2013-05-13 23:50:00,
2013-05-13 18:55:00,91.2,45.8,29.87,SW,221,0.0,11.0,21,0.00,,,0.00,Wunderground v.1.15,2013-05-13 23:55:00,
2013-05-13 19:01:00,91.6,46.1,29.87,SW,221,0.0,11.0,21,0.00,,,0.00,Wunderground v.1.15,2013-05-14 00:01:00,
2013-05-13 19:06:00,91.9,46.4,29.87,SW,221,0.0,11.0,21,0.00,,,0.00,Wunderground v.1.15,2013-05-14 00:06:00,
2013-05-13 19:12:00,92.1,46.6,29.87,SW,221,0.0,11.0,21,0.00,,,0.00,Wunderground v.1.15,2013-05-14 00:12:00,
2013-05-13 19:17:00,92.2,46.6,29.87,SW,221,0.0,11.0,21,0.00,,,0.00,Wunderground v.1.15,2013-05-14 00:17:00,
2013-05-13 19:23:00,92.3,46.7,29.87,SW,221,0.0,11.0,21,0.00,,,0.00,Wunderground v.1.15,2013-05-14 00:23:00,
2013-05-13 19:28:00,92.4,46.8,29.87,SW,221,0.0,11.0,21,0.00,,,0.00,Wunderground v.1.15,2013-05-14 00:28:00,
2013-05-13 19:33:00,92.7,47.0,29.86,SW,221,0.0,11.0,21,0.00,,,0.00,Wunderground v.1.15,2013-05-14 00:33:00,
2013-05-13 19:39:00,92.8,45.8,29.87,SW,221,0.0,11.0,20,0.00,,,0.00,Wunderground v.1.15,2013-05-14 00:39:00,
2013-05-13 19:44:00,92.8,45.8,29.86,SW,221,0.0,11.0,20,0.00,,,0.00,Wunderground v.1.15,2013-05-14 00:44:00,
2013-05-13 19:50:00,92.8,48.4,29.87,SW,221,0.0,11.0,22,0.00,,,0.00,Wunderground v.1.15,2013-05-14 00:50:00,
2013-05-13 19:55:00,92.2,47.9,29.86,SW,221,2.0,11.0,22,0.00,,,0.00,Wunderground v.1.15,2013-05-14 00:55:00,
2013-05-13 20:01:00,91.4,47.2,29.87,SW,221,5.0,7.0,22,0.00,,,0.00,Wunderground v.1.15,2013-05-14 01:01:00,
2013-05-13 20:07:00,90.8,46.7,29.87,SW,221,5.0,7.0,22,0.00,,,0.00,Wunderground v.1.15,2013-05-14 01:07:00,
2013-05-13 20:12:00,90.3,47.5,29.87,SW,221,5.0,5.0,23,0.00,,,0.00,Wunderground v.1.15,2013-05-14 01:12:00,
2013-05-13 20:17:00,89.8,47.1,29.87,SW,221,4.0,5.0,23,0.00,,,0.00,Wunderground v.1.15,2013-05-14 01:17:00,
2013-05-13 20:23:00,89.6,46.9,29.86,SW,221,5.0,6.0,23,0.00,,,0.00,Wunderground v.1.15,2013-05-14 01:23:00,
2013-05-13 20:28:00,89.8,47.1,29.87,SW,221,5.0,6.0,23,0.00,,,0.00,Wunderground v.1.15,2013-05-14 01:28:00,
2013-05-13 20:34:00,89.7,47.0,29.87,SW,221,5.0,6.0,23,0.00,,,0.00,Wunderground v.1.15,2013-05-14 01:34:00,
2013-05-13 20:39:00,89.7,47.0,29.87,SW,221,5.0,6.0,23,0.00,,,0.00,Wunderground v.1.15,2013-05-14 01:39:00,
2013-05-13 20:45:00,89.3,47.8,29.87,SW,221,5.0,7.0,24,0.00,,,0.00,Wunderground v.1.15,2013-05-14 01:45:00,
2013-05-13 20:51:00,88.9,47.4,29.87,SW,221,6.0,7.0,24,0.00,,,0.00,Wunderground v.1.15,2013-05-14 01:51:00,
2013-05-13 20:56:00,88.4,45.9,29.87,SW,217,6.0,7.0,23,0.00,,,0.00,Wunderground v.1.15,2013-05-14 01:56:00,
2013-05-13 21:01:00,88.4,45.9,29.86,SW,217,6.0,6.0,23,0.00,,,0.00,Wunderground v.1.15,2013-05-14 02:01:00,
2013-05-13 21:07:00,88.6,47.2,29.86,SW,217,6.0,6.0,24,0.00,,,0.00,Wunderground v.1.15,2013-05-14 02:07:00,
2013-05-13 21:12:00,88.0,49.8,29.86,SSW,201,6.0,7.0,27,0.00,,,0.00,Wunderground v.1.15,2013-05-14 02:12:00,
2013-05-13 21:18:00,86.6,46.6,29.86,SSE,147,7.0,9.0,25,0.00,,,0.00,Wunderground v.1.15,2013-05-14 02:18:00,
2013-05-13 21:23:00,86.8,47.8,29.86,SSE,147,7.0,7.0,26,0.00,,,0.00,Wunderground v.1.15,2013-05-14 02:23:00,
2013-05-13 21:29:00,87.0,46.9,29.86,SSE,147,6.0,7.0,25,0.00,,,0.00,Wunderground v.1.15,2013-05-14 02:29:00,
2013-05-13 21:34:00,86.8,46.8,29.87,SSE,147,6.0,8.0,25,0.00,,,0.00,Wunderground v.1.15,2013-05-14 02:34:00,
2013-05-13 21:40:00,86.0,47.1,29.87,SSE,147,7.0,7.0,26,0.00,,,0.00,Wunderground v.1.15,2013-05-14 02:40:00,
2013-05-13 21:45:00,85.5,47.7,29.87,SSE,147,7.0,7.0,27,0.00,,,0.00,Wunderground v.1.15,2013-05-14 02:45:00,
2013-05-13 21:50:00,84.9,47.2,29.86,SSE,147,6.0,6.0,27,0.00,,,0.00,Wunderground v.1.15,2013-05-14 02:50:00,
2013-05-13 21:56:00,84.3,46.7,29.86,SSE,147,5.0,6.0,27,0.00,,,0.00,Wunderground v.1.15,2013-05-14 02:56:00,
2013-05-13 22:02:00,83.7,48.1,29.86,SSE,147,5.0,6.0,29,0.00,,,0.00,Wunderground v.1.15,2013-05-14 03:02:00,
2013-05-13 22:07:00,82.5,48.8,29.86,SSE,147,5.0,6.0,31,0.00,,,0.00,Wunderground v.1.15,2013-05-14 03:07:00,
2013-05-13 22:12:00,81.3,47.8,29.87,SSE,147,5.0,5.0,31,0.00,,,0.00,Wunderground v.1.15,2013-05-14 03:12:00,
2013-05-13 22:18:00,80.4,47.0,29.87,SSE,147,5.0,10.0,31,0.00,,,0.00,Wunderground v.1.15,2013-05-14 03:18:00,
2013-05-13 22:23:00,80.9,47.4,29.86,SSE,147,7.0,9.0,31,0.00,,,0.00,Wunderground v.1.15,2013-05-14 03:23:00,
2013-05-13 22:29:00,80.7,46.4,29.86,SSE,147,9.0,10.0,30,0.00,,,0.00,Wunderground v.1.15,2013-05-14 03:29:00,
2013-05-13 22:34:00,80.6,46.3,29.87,SSE,155,10.0,12.0,30,0.00,,,0.00,Wunderground v.1.15,2013-05-14 03:34:00,
2013-05-13 22:40:00,80.6,47.2,29.87,SSE,158,11.0,11.0,31,0.00,,,0.00,Wunderground v.1.15,2013-05-14 03:40:00,
2013-05-13 22:46:00,80.5,46.2,29.86,SSE,158,11.0,11.0,30,0.00,,,0.00,Wunderground v.1.15,2013-05-14 03:46:00,
2013-05-13 22:51:00,81.0,45.7,29.86,SSE,158,11.0,13.0,29,0.00,,,0.00,Wunderground v.1.15,2013-05-14 03:51:00,
2013-05-13 22:57:00,81.9,46.5,29.86,SSE,158,12.0,13.0,29,0.00,,,0.00,Wunderground v.1.15,2013-05-14 03:57:00,
2013-05-13 23:01:00,81.2,46.8,29.86,SSE,160,12.0,12.0,30,0.00,,,0.00,Wunderground v.1.15,2013-05-14 04:01:00,
2013-05-13 23:02:00,80.7,46.4,29.87,SSE,157,12.0,15.0,30,0.00,,,0.00,Wunderground v.1.15,2013-05-14 04:02:00,
2013-05-13 23:03:00,80.0,47.5,29.86,SSE,154,12.0,15.0,32,0.00,,,0.00,Wunderground v.1.15,2013-05-14 04:03:00,
2013-05-13 23:09:00,78.7,47.2,29.87,SSE,153,11.0,15.0,33,0.00,,,0.00,Wunderground v.1.15,2013-05-14 04:09:00,
2013-05-13 23:10:00,78.3,46.8,29.87,SSE,153,10.0,10.0,33,0.00,,,0.00,Wunderground v.1.15,2013-05-14 04:10:00,
2013-05-13 23:11:00,77.9,47.3,29.87,SSE,153,10.0,10.0,34,0.00,,,0.00,Wunderground v.1.15,2013-05-14 04:11:00,
2013-05-13 23:16:00,76.5,46.8,29.87,SSE,153,7.0,10.0,35,0.00,,,0.00,Wunderground v.1.15,2013-05-14 04:16:00,
2013-05-13 23:22:00,76.8,47.1,29.87,SSE,168,7.0,10.0,35,0.00,,,0.00,Wunderground v.1.15,2013-05-14 04:22:00,
2013-05-13 23:28:00,76.8,47.1,29.86,SSE,167,8.0,10.0,35,0.00,,,0.00,Wunderground v.1.15,2013-05-14 04:28:00,
2013-05-13 23:33:00,76.8,46.3,29.86,SSE,163,8.0,11.0,34,0.00,,,0.00,Wunderground v.1.15,2013-05-14 04:33:00,
2013-05-13 23:38:00,76.8,46.3,29.86,SSE,163,8.0,11.0,34,0.00,,,0.00,Wunderground v.1.15,2013-05-14 04:38:00,
2013-05-13 23:44:00,76.6,46.9,29.86,SSE,165,8.0,9.0,35,0.00,,,0.00,Wunderground v.1.15,2013-05-14 04:44:00,
2013-05-13 23:49:00,76.5,46.8,29.86,South,171,8.0,9.0,35,0.00,,,0.00,Wunderground v.1.15,2013-05-14 04:49:00,
2013-05-13 23:55:00,76.3,46.6,29.86,SSE,167,8.0,10.0,35,0.00,,,0.00,Wunderground v.1.15,2013-05-14 04:55:00,